Home > Weather > Panipat > Past weeks

Flag for India Weather for the Past 2 Weeks in Panipat, Haryana, India

Now
52 °F

Fog.


Feels Like: 51 °F
Forecast: 49 / 76 °F
Wind: 5 mph from Northwest

Location: New Delhi Palam Airport

Current Time: Feb 14, 2016 at 8:07:16 AM

Latest Report: Feb 14, 2016 at 7:00 AM


Visibility: 0 mi

Pressure: 30.01 "Hg

Humidity: 88%

Dew point: 48 °F

Location of PanipatLocation

Historic Weather in Panipat — Graph

°F

Panipat Temperature Yesterday

Maximum temperature yesterday: 70 °F (at 2:00 PM)
Minimum temperature yesterday: 55 °F (at 5:30 AM)
Average temperature yesterday: 63 °F

High & Low Weather Summary for the Past Weeks

 TemperatureHumidityPressure
High79 °F (Jan 30, 1:30 PM)100% (Jan 31, 5:30 AM)30.12 "Hg (Jan 31, 5:30 AM)
Low43 °F (Feb 5, 6:30 AM)17% (Feb 11, 3:00 PM)29.80 "Hg (Feb 11, 2:30 AM)
Average62 °F60%29.98 "Hg
* Reported Jan 30 6:30 AM — Feb 14 6:30 AM, Panipat, Weather by CustomWeather, © 2016

Note: Actual official high and low records may vary slightly from our data, if they occured in-between our weather recording intervals... More about our weather records

Advertising

Panipat Weather History for the Previous 24 Hours

 ConditionsComfort  
Time TempWeatherWind HumidityBarometerVisibility
6:30 AM
Sun, Feb 14
52 °FFog.3 mph88%30.01 "Hg1 mi
6:00 AM52 °FFog.5 mph88%30.01 "Hg1 mi
5:30 AM52 °FFog.3 mph88%30.01 "Hg1 mi
5:00 AM52 °FFog.3 mph88%30.01 "Hg1 mi
4:30 AM52 °FFog.3 mph88%30.01 "Hg1 mi
4:00 AM54 °FFog.3 mph82%30.01 "Hg5 mi
3:30 AM54 °FFog.3 mph88%30.01 "Hg1 mi
3:00 AM54 °FFog.5 mph88%30.01 "Hg1 mi
2:30 AM54 °FFog.6 mph88%30.01 "Hg1 mi
2:00 AM54 °FFog.5 mph88%30.01 "Hg1 mi
1:30 AM54 °FFog.5 mph88%30.04 "Hg1 mi
1:00 AM54 °FFog.6 mph88%30.04 "Hg1 mi
12:30 AM55 °FFog.6 mph82%30.04 "Hg1 mi
12:00 AM55 °FFog.No wind82%30.04 "Hg1 mi
11:30 PM
Sat, Feb 13
55 °FFog.No wind82%30.04 "Hg1 mi
11:00 PM57 °FFog.No wind77%30.04 "Hg1 mi
10:30 PM59 °FHaze.3 mph72%30.01 "Hg2 mi
10:00 PM59 °FHaze.3 mph72%30.01 "Hg2 mi
9:30 PM59 °FHaze.3 mph72%30.01 "Hg2 mi
9:00 PM61 °FHaze.3 mph68%30.01 "Hg2 mi
8:30 PM61 °FHaze.5 mph63%30.01 "Hg2 mi
8:00 PM61 °FHaze.6 mph63%30.01 "Hg2 mi
7:30 PM63 °FHaze.6 mph59%29.98 "Hg2 mi
7:00 PM63 °FHaze.8 mph56%29.98 "Hg2 mi
6:30 PM64 °FHaze.8 mph49%29.98 "Hg2 mi
6:00 PM66 °FHaze.7 mph46%29.98 "Hg2 mi
5:30 PM68 °FHaze.8 mph43%29.95 "Hg2 mi
4:30 PM68 °FScattered clouds.10 mph43%29.95 "Hg2 mi
4:00 PM70 °FScattered clouds.9 mph38%29.92 "Hg2 mi
3:30 PM70 °FScattered clouds.9 mph38%29.92 "Hg2 mi
3:00 PM70 °FScattered clouds.9 mph38%29.92 "Hg2 mi
2:30 PM70 °FScattered clouds.12 mph35%29.95 "Hg2 mi
2:00 PM70 °FScattered clouds.12 mph35%29.95 "Hg1 mi
1:30 PM68 °FScattered clouds.12 mph38%29.98 "Hg1 mi
1:00 PM68 °FScattered clouds.12 mph38%29.98 "Hg1 mi
12:30 PM68 °FBroken clouds.13 mph38%30.01 "Hg1 mi
12:00 PM66 °FBroken clouds.13 mph40%30.01 "Hg1 mi
11:30 AM64 °FBroken clouds.12 mph46%30.01 "Hg1 mi
11:00 AM63 °FBroken clouds.10 mph49%30.04 "Hg1 mi
10:30 AM64 °FBroken clouds.10 mph46%30.04 "Hg1 mi
10:00 AM68 °FScattered clouds.8 mph40%30.01 "Hg1 mi
9:30 AM66 °FScattered clouds.6 mph40%29.98 "Hg1 mi
9:00 AM63 °FScattered clouds.5 mph52%29.98 "Hg1 mi
8:30 AM61 °FScattered clouds.3 mph55%29.95 "Hg1 mi
8:00 AM61 °FScattered clouds.5 mph52%29.95 "Hg1 mi
Weather by CustomWeather, © 2016

See weather overviewHow to use our weather pages